Location: Kings Park
(40.8862°N, 73.2573°W)
Time: 10:12:44
(UTC+00:00)

USA 307 - Pass Details

Date: 29 October 2020
Orbit: 569 x 579 km, 54.0° (Epoch: 23 November)

Event Time Altitude Azimuth Distance (km) Brightness Sun altitude
Rises 23:28:03 0° 312° (NW) 2,787 7.1 -18.7°
Reaches altitude 10° 23:30:22 10° 317° (NW) 1,884 6.1 -19.1°
Maximum altitude 23:34:34 56° 36° (NE) 681 3.0 -19.9°
Enters shadow 23:35:05 52° 67° (ENE) 713 3.0 -20.0°
